sat.trackr.live / text

‹ back to catalog

STARLINK-6315

NORAD 57236 · 2023-094U

PAYLOAD ACTIVE UNKNOWN

§ Identity

Operator
Country
US
Launch date
2023-07-07
Launch site
AFWTR
Launch vehicle
Mass (kg)
RCS (m²)

Purposes: comms

External: N2YO · Heavens-Above · Gunter

§ Orbital elements

Epoch: 2026-05-25T03:43:50.504160Z

Period
94.27 min
Inclination
43.0031°
Eccentricity
0.0001248
Mean motion
15.27571094 rev/d
Perigee alt
482.2 km
Apogee alt
483.9 km
Semi-major
6,861.2 km
B*
-8.7152e-6
RAAN
308.1272°
Arg perigee
270.1008°
Mean anomaly
89.9701°
Rev number
15,893

§ Raw data

STARLINK-63151 57236U 23094U   26145.15544565 -.00000502  00000+0 -87152-5 0  99902 57236  43.0031 308.1272 0001248 270.1008  89.9701 15.27571094158933

JSON: /api/v1/satellites/57236 · /tle

For live sub-satellite position, see the globe view (requires WebGL).

§ Visibility from observer

Set your observer location to see the next 7 days of passes ≥ 10°. The values pass through the URL so the page stays shareable.

No JS? Fill the form by hand. The geolocation button needs JavaScript.